Flag for Germany Weather past 2 weeks in Plettenberg, North Rhine-Westphalia, Germany

Now
48 °F

Clear.


Feels Like: 44 °F
Forecast: 34 / 60 °F
Wind: 9 mph from North

Location: Dortmund / Wickede

Current Time: Apr 22, 2015 at 2:31:13 AM

Latest Report: Apr 21, 2015 at 10:50 PM


Visibility: 10 mi

Pressure: 30.42 "Hg

Humidity: 58%

Dew point: 34 °F

Location of PlettenbergLocation

Historic Weather in Plettenberg — Graph

°F

Plettenberg temperature yesterday

Maximum temperature yesterday: 70 °F (at 3:50 PM)
Minimum temperature yesterday: 36 °F (at 6:20 AM)
Average temperature yesterday: 58 °F

Past Weeks' High & Low Weather Summary

 TemperatureHumidityPressure
High73 °F (Apr 15, 4:20 PM)93% (Apr 7, 5:20 AM)30.63 "Hg (Apr 7, 5:20 AM)
Low32 °F (Apr 7, 5:20 AM)18% (Apr 21, 4:50 PM)29.92 "Hg (Apr 15, 6:20 PM)
Average53 °F57%30.26 "Hg
* Reported Apr 6 10:20 PM — Apr 21 10:50 PM, Plettenberg, Weather by CustomWeather, © 2015

Note: Actual official high and low records may vary slightly from our data, if they occured in-between our weather recording intervals... More about our weather records

Advertising

Plettenberg weather history for previous 24 hours

 ConditionsComfort  
Time TempWeatherWind HumidityBarometerVisibility
10:50 PM
Tue, Apr 21
48 °FClear.9 mph58%30.42 "Hg10 mi
10:20 PM50 °FClear.8 mph54%30.42 "Hg10 mi
9:50 PM54 °FClear.9 mph44%30.42 "Hg10 mi
9:20 PM55 °FSunny.9 mph44%30.39 "Hg10 mi
8:50 PM57 °FSunny.10 mph48%30.39 "Hg10 mi
8:20 PM59 °FSunny.10 mph45%30.39 "Hg10 mi
7:50 PM61 °FSunny.12 mph39%30.36 "Hg10 mi
7:20 PM66 °FPassing clouds.10 mph28%30.36 "HgN/A
6:50 PM66 °FPassing clouds.10 mph28%30.36 "HgN/A
6:20 PM68 °FPassing clouds.12 mph23%30.36 "HgN/A
5:50 PM66 °FPassing clouds.12 mph28%30.39 "HgN/A
5:20 PM70 °FPassing clouds.13 mph18%30.39 "HgN/A
4:50 PM70 °FPassing clouds.14 mph18%30.39 "HgN/A
4:20 PM68 °FSunny.12 mph28%30.39 "Hg10 mi
3:50 PM70 °FPassing clouds.9 mph23%30.39 "HgN/A
3:20 PM68 °FPassing clouds.10 mph24%30.39 "HgN/A
2:50 PM66 °FPassing clouds.8 mph26%30.42 "HgN/A
2:20 PM66 °FPassing clouds.7 mph28%30.42 "HgN/A
1:50 PM64 °FPassing clouds.7 mph28%30.42 "HgN/A
1:20 PM64 °FPassing clouds.7 mph30%30.42 "HgN/A
12:50 PM63 °FSunny.8 mph39%30.45 "Hg10 mi
12:20 PM63 °FSunny.5 mph45%30.45 "Hg10 mi
11:50 AM61 °FPassing clouds.7 mph42%30.45 "HgN/A
11:20 AM59 °FPassing clouds.6 mph51%30.45 "HgN/A
10:50 AM55 °FPassing clouds.6 mph55%30.45 "HgN/A
10:20 AM54 °FSunny.2 mph58%30.42 "Hg10 mi
9:50 AM52 °FSunny.2 mph62%30.42 "Hg10 mi
9:20 AM52 °FSunny.1 mph62%30.42 "Hg10 mi
8:50 AM48 °FSunny.2 mph71%30.42 "Hg10 mi
8:20 AM48 °FSunny.No wind71%30.42 "Hg10 mi
7:50 AM45 °FSunny.2 mph76%30.42 "Hg10 mi
7:20 AM41 °FClear.3 mph87%30.42 "Hg10 mi
6:50 AM37 °FClear.5 mph87%30.42 "Hg10 mi
6:20 AM36 °FClear.3 mph81%30.39 "Hg10 mi
5:20 AM43 °FClear.3 mph76%30.39 "Hg10 mi
Weather by CustomWeather, © 2015

See weather overviewHow to use our weather pages